Flag Weather past 2 weeks in Concord, New Hampshire, U.S.A.

Now
28 °F

Passing clouds.


Feels Like: 23 °F
Forecast: 6 / 25 °F
Wind: 5 mph from West

Location: Manchester Airport

Current Time: Nov 28, 2014 at 7:12:16 PM

Latest Report: Nov 28, 2014 at 5:53 PM


Visibility: 10 mi

Pressure: 30.17 "Hg

Humidity: 58%

Dew point: 15 °F

Location of ConcordLocation

Historic Weather in Concord — Graph

°F

Concord temperature yesterday

Maximum temperature yesterday: 34 °F (at 11:53 AM)
Minimum temperature yesterday: 28 °F (at 6:53 PM)
Average temperature yesterday: 31 °F

Past Weeks' High & Low Weather Summary

 TemperatureHumidityPressure
High66 °F (Nov 24, 1:53 PM)96% (Nov 26, 11:53 AM)30.45 "Hg (Nov 26, 11:53 AM)
Low21 °F (Nov 22, 3:53 AM)26% (Nov 22, 3:53 PM)29.48 "Hg (Nov 17, 9:53 PM)
Average37 °F61%30.02 "Hg
* Reported Nov 13 5:53 PM — Nov 28 5:53 PM, Concord, Weather by CustomWeather, © 2014

Note: Actual official high and low records may vary slightly from our data, if they occured in-between our weather recording intervals... More about our weather records

Advertising

Concord weather history for previous 24 hours

 ConditionsComfort  
Time TempWeatherWind HumidityBarometerVisibility
5:53 PM
Nov 28
28 °FPassing clouds.5 mph58%30.17 "Hg10 mi
4:53 PM29 °FPassing clouds.6 mph58%30.15 "Hg10 mi
3:53 PM31 °FScattered clouds.12 mph52%30.12 "Hg10 mi
2:53 PM33 °FPartly sunny.13 mph58%30.11 "Hg10 mi
1:53 PM33 °FPartly sunny.8 mph61%30.09 "Hg10 mi
12:53 PM31 °FScattered clouds.10 mph64%30.09 "Hg10 mi
11:53 AM32 °FBroken clouds.13 mph64%30.10 "Hg10 mi
10:53 AM31 °FBroken clouds.13 mph67%30.11 "Hg10 mi
9:53 AM28 °FPartly sunny.5 mph78%30.11 "Hg10 mi
8:53 AM28 °FOvercast.5 mph81%30.10 "Hg10 mi
8:04 AM26 °FCloudy.5 mph84%30.04 "Hg10 mi
7:53 AM27 °FMostly cloudy.6 mph81%30.10 "Hg10 mi
7:04 AM26 °FLight snow. Overcast.7 mph84%30.03 "Hg9 mi
6:53 AM26 °FOvercast.6 mph84%30.09 "Hg9 mi
5:53 AM27 °FLight snow. Ice fog.7 mph89%30.07 "Hg2 mi
4:53 AM28 °FLight snow. Ice fog.6 mph89%30.06 "Hg2 mi
3:53 AM27 °FLight snow. Ice fog.7 mph89%30.05 "Hg4 mi
3:01 AM28 °FLight snow. Ice fog.8 mph89%29.99 "Hg2 mi
1:53 AM28 °FLight snow. Ice fog.5 mph89%30.05 "Hg1 mi
1:02 AM28 °FLight snow. Ice fog.6 mph89%29.99 "Hg2 mi
11:53 PM
Nov 27
28 °FLight snow. Ice fog.8 mph89%30.05 "Hg1 mi
11:01 PM28 °FLight snow. Ice fog.6 mph85%30.00 "Hg2 mi
9:53 PM29 °FMostly cloudy.7 mph79%30.06 "Hg10 mi
8:53 PM29 °FOvercast.5 mph79%30.06 "Hg10 mi
7:53 PM29 °FOvercast.3 mph82%30.05 "Hg10 mi
Weather by CustomWeather, © 2014

See weather overviewHow to use our weather pages